Powrót do katalogu

INTELSAT 4-F7

AktywnyŁącznośćGEO
NORAD 6796·PAYLOAD· XX

Wystrzelony Aug 23, 1973 z Cape Canaveral Space Force Station

Loading…

TLE

ŚwieżeSource: Space-Track

Epoka: Sep 14, 2026, 13:20 UTC

1  6796U 73058A   26257.55573080 -.00000010  00000-0  00000+0 0  9997
2  6796   7.0342 296.1828 0005069 230.8446 288.3998  0.99143165136532

Śledź INTELSAT 4-F7 w czasie rzeczywistym z AllMySat

Download on the App Store